sat.trackr.live / text

‹ back to catalog

BEIDOU-3 M16 (C35)

NORAD 43647 · 2018-078A

PAYLOAD ACTIVE UNKNOWN

§ Identity

Operator
Country
PRC
Launch date
2018-10-15
Launch site
XICLF
Launch vehicle
Mass (kg)
RCS (m²)

Purposes: nav

External: N2YO · Heavens-Above · Gunter

§ Orbital elements

Epoch: 2026-09-08T05:55:05.068416Z

Period
773.23 min
Inclination
54.0120°
Eccentricity
0.0006042
Mean motion
1.86232261 rev/d
Perigee alt
21,511.1 km
Apogee alt
21,544.8 km
Semi-major
27,906.1 km
B*
0.0000e+0
RAAN
297.0669°
Arg perigee
32.7887°
Mean anomaly
327.3221°
Rev number
5,370

§ Raw data

BEIDOU-3 M16 (C35)1 43647U 18078A   26251.24658644 -.00000025  00000+0  00000+0 0  99992 43647  54.0120 297.0669 0006042  32.7887 327.3221  1.86232261 53700

JSON: /api/v1/satellites/43647 · /tle

For live sub-satellite position, see the globe view (requires WebGL).

§ Visibility from observer

Set your observer location to see the next 7 days of passes ≥ 10°. The values pass through the URL so the page stays shareable.

No JS? Fill the form by hand. The geolocation button needs JavaScript.